x

Chambers Island, Wi (cbrw3) Weather Station

5:40am - Mon 24th Apr 2017 All times are CDT. -5 hours from GMT.

  • Wind
    10mph, 14mph gusts
  • Air Temp 36°f
  • Sea Pressure 1017.3mb
  • Chambers Island, Wi
  • Chambers Island, Wi

More Historic Weather Station data

Upgrade to MSW Pro to gain access to the past 30 days of data for over 8000 Wavebouys and Weather Stations around the globe.

Join Pro

Comparision Forecast

View Surf forecast
   
Mon 04/24 5:40am 10 14 mph 1017.3mb 36f
5:30am 10 13 mph 1017.3mb 36f
5:20am 10 15 mph 1017.6mb 36f
5:10am 10 16 mph 1017.3mb 36f
5:00am 11 14 mph 1017.6mb 36f
4:40am 13 15 mph 1017.6mb 35f
4:30am 11 15 mph 1017.9mb 35f
4:20am 10 13 mph 1017.9mb 35f
4:10am 10 14 mph 1017.9mb 35f
4:00am 9 15 mph 1017.9mb 35f
3:40am 8 14 mph 1017.9mb 35f
3:30am 9 15 mph 1017.9mb 35f
3:20am 11 14 mph 1017.9mb 35f
3:10am 13 15 mph 1017.9mb 35f
3:00am 9 14 mph 1018.3mb 35f
2:40am 11 16 mph 1018.6mb 35f
2:30am 11 16 mph 1018.6mb 35f
2:20am 10 16 mph 1019mb 35f
2:10am 10 15 mph 1019mb 35f
2:00am 9 14 mph 1019mb 35f
1:40am 10 15 mph 1019.3mb 35f
1:30am 10 16 mph 1019.3mb 35f
1:20am 13 16 mph 1019.6mb 35f
1:10am 13 16 mph 1020mb 36f
1:00am 13 18 mph 1020mb 36f
12:40am 17 20 mph 1020mb 36f
12:30am 18 21 mph 1019.6mb 36f
12:20am 17 21 mph 1020mb 36f
12:10am 17 22 mph 1020mb 36f
12:00am 17 22 mph 1020mb 36f
Sun 04/23 11:40pm 18 22 mph 1020.3mb 36f
11:30pm 18 21 mph 1020.3mb 36f
11:20pm 20 22 mph 1020.3mb 37f
11:10pm 17 22 mph 1020.3mb 37f
11:00pm 18 23 mph 1020.3mb 37f
10:40pm 20 22 mph 1020.3mb 37f
10:30pm 20 22 mph 1020.3mb 37f
10:20pm 18 21 mph 1020.3mb 37f
10:10pm 20 21 mph 1020.7mb 37f
10:00pm 17 21 mph 1020.7mb 38f
9:40pm 18 22 mph 1020.7mb 38f
9:30pm 16 22 mph 1020.7mb 38f
9:20pm 16 21 mph 1020.7mb 38f
9:10pm 16 20 mph 1020.7mb 38f
9:00pm 17 21 mph 1020.7mb 38f
8:40pm 15 22 mph 1020.7mb 38f
8:30pm 15 17 mph 1020.3mb 38f
8:20pm 13 16 mph 1020.7mb 38f
8:10pm 15 16 mph 1020.3mb 39f
8:00pm 14 16 mph 1020.3mb 38f
7:40pm 15 18 mph 1020mb 38f
7:30pm 14 16 mph 1020mb 38f
7:20pm 14 15 mph 1020mb 38f
7:10pm 14 16 mph 1020mb 38f
7:00pm 14 16 mph 1020mb 38f
6:40pm 13 14 mph 1020.3mb 38f
6:30pm 11 15 mph 1020.3mb 38f
6:20pm 11 16 mph 1020.3mb 38f
6:10pm 13 18 mph 1020mb 38f
6:00pm 13 18 mph 1020.3mb 38f
5:40pm 16 20 mph 1020.3mb 38f
5:30pm 15 22 mph 1020.3mb 38f
5:20pm 16 22 mph 1020mb 38f
5:10pm 15 21 mph 1020.3mb 38f
5:00pm 15 20 mph 1020mb 38f
4:40pm 13 21 mph 1020.3mb 38f
4:30pm 15 21 mph 1020mb 38f
4:20pm 16 21 mph 1020.3mb 38f
4:10pm 20 22 mph 1020.3mb 37f
4:00pm 15 20 mph 1020.3mb 38f
3:40pm 14 20 mph 1020.3mb 38f
3:30pm 14 18 mph 1020.7mb 38f
3:20pm 18 22 mph 1020.7mb 37f
3:10pm 16 20 mph 1020.7mb 37f
3:00pm 16 21 mph 1020.7mb 37f
2:40pm 14 20 mph 1021mb 37f
2:30pm 16 18 mph 1021mb 37f
2:20pm 15 20 mph 1021.3mb 37f
2:10pm 18 22 mph 1021.3mb 38f
2:00pm 17 22 mph 1021mb 38f
1:40pm 16 21 mph 1021mb 38f
1:30pm 18 21 mph 1021mb 38f
1:20pm 17 21 mph 1021mb 38f
1:10pm 17 20 mph 1021mb 38f
1:00pm 17 20 mph 1021mb 38f
12:40pm 16 20 mph 1021.3mb 38f
12:30pm 17 20 mph 1021.3mb 38f
12:20pm 15 18 mph 1021.3mb 38f
12:10pm 14 18 mph 1021mb 38f
12:00pm 15 18 mph 1021.3mb 38f
11:40am 15 17 mph 1021.7mb 38f
11:30am 15 18 mph 1021.7mb 39f
11:20am 15 18 mph 1021.7mb 39f
11:10am 17 20 mph 1021.7mb 39f
11:00am 16 20 mph 1021.7mb 39f
10:40am 15 18 mph 1021.7mb 38f
10:30am 18 21 mph 1021.3mb 39f
10:20am 20 22 mph 1021.7mb 38f
10:10am 18 21 mph 1021.3mb 38f
10:00am 15 21 mph 1021.3mb 38f
9:40am 18 21 mph 1021mb 39f
9:30am 18 21 mph 1021mb 39f
9:20am 17 20 mph 1020.7mb 39f
9:10am 16 20 mph 1020.7mb 39f
9:00am 16 18 mph 1020.3mb 39f
8:40am 16 22 mph 1020.3mb 39f
8:30am 17 23 mph 1020.3mb 39f
8:20am 17 23 mph 1020.3mb 39f
8:10am 18 23 mph 1020mb 39f
8:00am 18 21 mph 1020mb 39f
7:40am 18 22 mph 1019.6mb 40f
7:30am 18 22 mph 1019.3mb 40f
7:20am 17 20 mph 1019.3mb 40f
7:10am 16 20 mph 1019mb 40f
7:00am 14 17 mph 1019mb 40f
6:40am 13 17 mph 1018.6mb 41f
6:30am 13 16 mph 1017.9mb 42f
6:20am 11 15 mph 1017.6mb 42f
6:10am 10 14 mph 1017.9mb 42f
6:00am 8 9 mph 1017.9mb 43f
5:40am 8
mph
1017.3mb 42f
5:30am 6 8 mph 1016.9mb 43f
5:20am 2 3 mph 1017.3mb 41f
5:10am  -  1 mph 1016.9mb 41f
5:00am  -  mph 1016.9mb 40f
4:40am  -  mph 1016.6mb 40f
4:30am  -  2 mph 1016.6mb 41f
4:20am  -  1 mph 1016.6mb 42f
4:10am  -  5 mph 1016.6mb 43f
4:00am 2 8 mph 1016.6mb 43f
3:40am 3 10 mph 1015.9mb 47f
3:30am 7 11 mph 1015.9mb 47f
3:20am 7 11 mph 1015.9mb 47f
3:10am 7 11 mph 1016.3mb 47f
3:00am 6 10 mph 1015.9mb 48f
2:40am 6 13 mph 1016.3mb 48f
2:30am 8 14 mph 1016.3mb 48f
2:20am 7 11 mph 1016.6mb 48f
2:10am 6 10 mph 1016.6mb 49f
2:00am 8 13 mph 1016.6mb 49f
1:40am 8 17 mph 1016.9mb 50f
1:30am 7 16 mph 1016.9mb 49f
1:20am 9 17 mph 1016.9mb 50f
1:10am 10 17 mph 1016.9mb 50f
1:00am 8 17 mph 1016.9mb 50f
12:40am 13 20 mph 1017.3mb 50f
12:30am 10 21 mph 1017.3mb 50f
12:20am 15 22 mph 1017.3mb 50f
12:10am 13 24 mph 1017.6mb 50f
12:00am 10 22 mph 1017.6mb 51f
Sat 04/22 11:40pm 7 17 mph 1017.6mb 50f
11:30pm 10 18 mph 1017.3mb 50f
11:20pm 9 18 mph 1017.3mb 49f
11:10pm 10 17 mph 1017.3mb 50f
11:00pm 10 22 mph 1017.3mb 51f
10:40pm 9 18 mph 1017.3mb 50f
10:30pm 9 16 mph 1017.6mb 49f
10:20pm 8 14 mph 1017.6mb 49f
10:10pm 8 14 mph 1017.6mb 48f
10:00pm 8 13 mph 1017.6mb 49f
9:40pm 10 17 mph 1017.9mb 51f
9:30pm 8 17 mph 1017.9mb 51f
9:20pm 8 16 mph 1017.9mb 51f
9:10pm 7 15 mph 1017.9mb 51f
9:00pm 7 17 mph 1017.9mb 51f
8:40pm 7 17 mph 1017.9mb 52f
8:30pm 8 14 mph 1017.9mb 52f
8:20pm 8 17 mph 1017.9mb 52f
8:10pm 9 15 mph 1017.9mb 53f
8:00pm 9 15 mph 1017.9mb 53f
7:40pm 6 14 mph 1017.9mb 53f
7:30pm 5 10 mph 1017.9mb 53f
7:20pm 6 11 mph 1017.9mb 54f
7:10pm 6 13 mph 1017.9mb 55f
7:00pm 5 11 mph 1017.9mb 55f
6:40pm 6 14 mph 1018.3mb 56f
6:30pm 7 15 mph 1018.3mb 57f
6:20pm 6 14 mph 1018.3mb 57f
6:10pm 6 16 mph 1018.3mb 57f
6:00pm 6 15 mph 1018.3mb 58f
5:40pm 7 18 mph 1018.6mb 59f
5:30pm 6 15 mph 1018.6mb 60f
5:20pm 10 15 mph 1018.6mb 60f
5:10pm 8 17 mph 1018.6mb 60f
5:00pm 9 16 mph 1018.6mb 60f
4:40pm 11 17 mph 1018.6mb 59f
4:30pm 10 15 mph 1019mb 59f
4:20pm 9 17 mph 1019mb 59f
4:10pm 6 14 mph 1019.3mb 59f
4:00pm 9 15 mph 1019.3mb 59f
3:40pm 7 15 mph 1019.6mb 58f
3:30pm 10 16 mph 1019.6mb 57f
3:20pm 7 13 mph 1020mb 57f
3:10pm 7 16 mph 1020mb 57f
3:00pm 7 18 mph 1020.3mb 57f
2:40pm 6 15 mph 1020.7mb 56f
2:30pm 9 16 mph 1020.7mb 56f
2:20pm 9 15 mph 1021mb 56f
2:10pm 11 15 mph 1021mb 55f
2:00pm 9 15 mph 1021mb 56f
1:40pm 9 13 mph 1021mb 56f
1:30pm 8 11 mph 1021.3mb 56f
1:20pm 9 13 mph 1021.3mb 56f
1:10pm 8 14 mph 1021.3mb 55f
1:00pm 8 13 mph 1021.7mb 56f
12:40pm 6 10 mph 1021.7mb 55f
12:30pm 7 11 mph 1021.7mb 54f
12:20pm 7 13 mph 1022mb 53f
12:10pm 7 10 mph 1022.4mb 53f
12:00pm 5 9 mph 1022.4mb 55f
11:40am 5 8 mph 1022.4mb 55f
11:30am 5 8 mph 1022.4mb 55f
11:20am 3 7 mph 1022.7mb 54f
11:10am 6 9 mph 1022.7mb 54f
11:00am 3 8 mph 1022.7mb 54f
10:40am 2 7 mph 1023mb 53f
10:30am 3 7 mph 1023mb 52f
10:20am 5 7 mph 1023.4mb 52f
10:10am 5 6 mph 1023.4mb 52f
10:00am 5 6 mph 1023.4mb 52f
9:40am 2 3 mph 1023.4mb 51f
9:30am 2 7 mph 1023.4mb 49f
9:20am 2 5 mph 1023.4mb 48f
9:10am  -  1 mph 1023.4mb 49f
9:00am  -  5 mph 1023.4mb 49f
8:40am 1 3 mph 1023.4mb 51f
8:30am  -  mph 1023.7mb 53f
8:20am  -  mph 1023.7mb 51f
8:10am  -  mph 1023.7mb 51f
8:00am  -  mph 1023.7mb 51f
7:40am  -  mph 1023.4mb 48f
7:30am  -  mph 1023.4mb 48f
7:20am  -  1 mph 1023mb 42f
7:10am  -  2 mph 1023mb 43f
7:00am 2 3 mph 1023mb 40f
6:40am 1 3 mph 1023mb 37f
6:30am 1 2 mph 1023mb 34f
6:20am 2
mph
1022.7mb 32f
6:10am  -  1 mph 1022.4mb 32f
6:00am  -  2 mph 1022.4mb 32f
5:40am 2 3 mph 1022.4mb 34f
5:30am 2 5 mph 1022.4mb 33f
5:20am 2 3 mph 1022mb 31f
5:10am 2 5 mph 1022mb 32f
5:00am 1 3 mph 1022mb 31f
4:40am 3 6 mph 1022mb 31f
4:30am 3 5 mph 1022mb 31f
4:20am 3 6 mph 1022mb 32f
4:10am 3 6 mph 1022mb 31f
4:00am 3 6 mph 1021.7mb 33f
3:40am 3 5 mph 1021.7mb 31f
3:30am 3 5 mph 1021.7mb 33f
3:20am 5 7 mph 1021.7mb 36f
3:10am 6 9 mph 1021.7mb 39f
3:00am 6 7 mph 1022mb 39f
2:40am 6 9 mph 1022mb 39f
2:30am 6 9 mph 1022mb 39f
2:20am 6 8 mph 1022mb 35f
2:10am 5 7 mph 1022mb 33f
2:00am  -  5 mph 1022mb 31f
1:40am 2 3 mph 1021.7mb 29f
1:30am  -  1 mph 1021.7mb 30f
1:20am  -  mph 1022mb 30f
1:10am  -  3 mph 1022mb 31f
1:00am 2 3 mph 1022mb 31f
12:40am 1 2 mph 1022mb 32f
12:30am 2
mph
1022mb 33f
12:20am  -  1 mph 1022mb 34f
12:10am 1 2 mph 1022mb 36f
12:00am  -  1 mph 1022mb 36f
Fri 04/21 11:40pm  -  3 mph 1021.7mb 37f
11:30pm  -  2 mph 1021.7mb 38f
11:20pm 2 5 mph 1021.7mb 39f
11:10pm 3 6 mph 1021.7mb 42f
11:00pm 2 6 mph 1022mb 41f
10:40pm 5 7 mph 1022mb 43f
10:30pm 6 9 mph 1021.7mb 43f
10:20pm 7 10 mph 1021.7mb 42f
10:10pm 7 10 mph 1021.7mb 42f
10:00pm 7 9 mph 1021.7mb 42f
9:40pm 8 10 mph 1021.7mb 43f
9:30pm 8 11 mph 1021.7mb 43f
9:20pm 9 14 mph 1021.7mb 43f
9:10pm 7 11 mph 1021.3mb 42f
9:00pm 10 14 mph 1021.3mb 44f
8:40pm 13 16 mph 1020.7mb 42f
8:30pm 15 20 mph 1020.3mb 43f
8:20pm 16 18 mph 1020.3mb 43f
8:10pm 16 20 mph 1020.3mb 43f
8:00pm 16 20 mph 1020.3mb 43f
7:40pm 16 18 mph 1020mb 44f
7:30pm 16 18 mph 1020mb 43f
7:20pm 15 17 mph 1020mb 43f
7:10pm 16 20 mph 1019.6mb 43f
7:00pm 15 20 mph 1019.6mb 43f
6:40pm 14 16 mph 1019.6mb 43f
6:30pm 15 17 mph 1019.6mb 43f
6:20pm 13 14 mph 1019.6mb 43f
6:10pm 11 13 mph 1019.6mb 43f
6:00pm 10 18 mph 1019.6mb 45f
5:40pm 9 11 mph 1019.6mb 45f
5:30pm 6 13 mph 1019.6mb 44f
5:20pm 13 15 mph 1019.3mb 46f
5:10pm 13 16 mph 1019.3mb 47f
5:00pm 11 16 mph 1019.3mb 48f
4:40pm 8 10 mph 1019.3mb 48f
4:30pm 7 10 mph 1019.3mb 48f
4:20pm 8 11 mph 1019.3mb 48f
4:10pm 8 11 mph 1019.3mb 48f
4:00pm 8 11 mph 1019mb 48f
3:40pm 8 14 mph 1018.6mb 47f
3:30pm 10 14 mph 1018.6mb 46f
3:20pm 10 15 mph 1018.3mb 46f
3:10pm 11 16 mph 1018.3mb 47f
3:00pm 11 16 mph 1018.3mb 47f
2:40pm 14 18 mph 1018.3mb 46f
2:30pm 14 18 mph 1018.3mb 45f
2:20pm 14 16 mph 1017.9mb 43f
2:10pm 13 14 mph 1017.9mb 42f
2:00pm 11 14 mph 1017.9mb 43f
1:40pm 10 13 mph 1018.3mb 42f
1:30pm 13 15 mph 1017.9mb 44f
1:20pm 10 14 mph 1017.9mb 44f
1:10pm 13 16 mph 1017.6mb 44f
1:00pm 13 15 mph 1017.3mb 43f
12:40pm 16 17 mph 1017.6mb 43f
12:30pm 15 16 mph 1017.9mb 44f
12:20pm 15 17 mph 1018.3mb 45f
12:10pm 14 15 mph 1018.6mb 45f
12:00pm 8 11 mph 1018.3mb 44f
11:40am 16 23 mph 1018.3mb 45f
11:30am 13 17 mph 1017.9mb 44f
11:20am 15 18 mph 1017.6mb 44f
11:10am 17 20 mph 1017.3mb 44f
11:00am 14 17 mph 1017.3mb 44f
10:40am 11 15 mph 1017.3mb 43f
10:30am 10 13 mph 1017.3mb 43f
10:20am 11 15 mph 1017.3mb 43f
10:10am 11 14 mph 1016.9mb 42f
10:00am 9 11 mph 1016.9mb 42f
9:40am 16 21 mph 1016.6mb 41f
9:30am 16 20 mph 1016.6mb 41f
9:20am 15 20 mph 1016.6mb 41f
9:10am 17 28 mph 1016.6mb 40f
9:00am 22 25 mph 1016.3mb 40f
8:40am 17 25 mph 1015.9mb 40f
8:30am 21 23 mph 1015.9mb 40f
8:20am 17 25 mph 1015.6mb 40f
8:10am 20 25 mph 1015.6mb 40f
8:00am 18 22 mph 1015.6mb 39f
7:40am 21 24 mph 1015.2mb 38f
7:30am 21 28 mph 1014.9mb 38f
7:20am 21 25 mph 1014.9mb 38f
7:10am 18 23 mph 1014.9mb 38f
7:00am 17 22 mph 1014.9mb 38f
6:40am 13 17 mph 1014.6mb 38f
6:30am 11 20 mph 1014.6mb 38f
6:20am 13 17 mph 1014.6mb 38f
6:10am 11 20 mph 1014.2mb 38f
6:00am 10 17 mph 1014.2mb 38f
5:40am 11 16 mph 1013.9mb 37f
5:30am 10 15 mph 1013.9mb 37f
5:20am 9 15 mph 1013.9mb 37f
5:10am 8 14 mph 1013.5mb 37f
5:00am 9 15 mph 1013.5mb 37f
4:40am 9 14 mph 1013.5mb 37f
4:30am 9 15 mph 1013.2mb 37f
4:20am 10 15 mph 1013.2mb 37f
4:10am 10 17 mph 1012.9mb 37f
4:00am 11 17 mph 1012.9mb 37f
3:40am 9 18 mph 1012.5mb 37f
3:30am 14 18 mph 1012.2mb 37f
3:20am 13 20 mph 1012.2mb 37f
3:10am 10 16 mph 1011.9mb 37f
3:00am 10 17 mph 1011.9mb 37f
2:40am 9 15 mph 1011.2mb 37f
2:30am 10 17 mph 1011.5mb 37f
2:20am 13 21 mph 1011.2mb 37f
2:10am 9 17 mph 1011.2mb 37f
2:00am 10 20 mph 1011.2mb 38f
1:40am 11 16 mph 1011.2mb 38f
1:30am 7 16 mph 1011.2mb 38f
1:20am 9 14 mph 1010.8mb 38f
1:10am 9 13 mph 1010.8mb 39f
1:00am 8 11 mph 1010.8mb 39f
12:40am 6 9 mph 1010.8mb 39f
12:30am 6 11 mph 1010.8mb 39f
12:20am 6 10 mph 1010.8mb 39f
12:10am 6 10 mph 1010.5mb 39f
12:00am 5 8 mph 1010.5mb 39f
Thu 04/20 11:40pm 3 9 mph 1010.2mb 38f
11:30pm 2 6 mph 1010.2mb 39f
11:20pm 3 9 mph 1010.2mb 39f
11:10pm 5 9 mph 1010.2mb 39f
11:00pm 3 8 mph 1010.2mb 39f
10:40pm 5 7 mph 1010.2mb 39f
10:30pm 2 3 mph 1010.2mb 39f
10:20pm 2 5 mph 1010.2mb 39f
10:10pm 2 5 mph 1010.2mb 39f
10:00pm 2 3 mph 1010.2mb 39f
9:40pm  -  3 mph 1010.2mb 39f
9:30pm 2 3 mph 1010.2mb 39f
9:20pm 1 3 mph 1009.8mb 39f
9:10pm 2 6 mph 1009.8mb 39f
9:00pm 3 7 mph 1009.8mb 39f
8:40pm 2 7 mph 1009.8mb 40f
8:30pm 6 8 mph 1009.5mb 40f
8:20pm 3 8 mph 1009.5mb 40f
8:10pm 3 7 mph 1009.1mb 39f
8:00pm 5 7 mph 1009.1mb 39f
7:40pm 2 5 mph 1009.1mb 39f
7:30pm 1 3 mph 1009.1mb 39f
7:20pm 2 5 mph 1008.8mb 40f
7:10pm 3 7 mph 1008.8mb 40f
7:00pm 3 7 mph 1008.8mb 39f
6:40pm 3 7 mph 1009.1mb 39f
6:30pm 6 10 mph 1009.1mb 39f
6:20pm 6 13 mph 1009.1mb 39f
6:10pm 10 13 mph 1009.1mb 38f
6:00pm 10 13 mph 1008.8mb 38f
5:40pm 10 11 mph 1008.5mb 38f
5:30pm 10 13 mph 1008.5mb 38f
5:20pm 10 11 mph 1008.1mb 38f
5:10pm 9 13 mph 1007.8mb 38f
5:00pm 10 11 mph 1007.8mb 38f
4:40pm 10 13 mph 1007.5mb 38f
4:30pm 11 14 mph 1007.5mb 38f
4:20pm 13 14 mph 1007.5mb 38f
4:10pm 11 14 mph 1007.5mb 38f
4:00pm 13 15 mph 1007.5mb 38f
3:40pm 13 14 mph 1007.5mb 38f
3:30pm 9 11 mph 1007.5mb 38f
3:20pm 9 14 mph 1007.5mb 38f
3:10pm 11 15 mph 1007.1mb 38f
3:00pm 13 16 mph 1007.5mb 38f
2:40pm 14 16 mph 1007.8mb 38f
2:30pm 14 15 mph 1007.8mb 38f
2:20pm 11 14 mph 1008.5mb 38f
2:10pm 11 13 mph 1008.1mb 38f
2:00pm 9 13 mph 1008.1mb 38f
1:40pm 10 14 mph 1008.5mb 38f
1:30pm 10 14 mph 1008.1mb 38f
1:20pm 9 14 mph 1008.8mb 38f
1:10pm 9 13 mph 1008.8mb 38f
1:00pm 10 13 mph 1009.1mb 38f
12:40pm 8 13 mph 1009.5mb 38f
12:30pm 10 13 mph 1009.1mb 39f
12:20pm 9 14 mph 1009.5mb 39f
12:10pm 9 15 mph 1009.5mb 39f
12:00pm 11 14 mph 1009.1mb 39f
11:40am 13 18 mph 1009.5mb 39f
11:30am 14 17 mph 1009.8mb 39f